Terug naar catalogus

DUMMY SAT 2/BREEZE-M

ActiefWetenschapMEO
NORAD 40355·PAYLOAD·🇷🇺 Russia

Gelanceerd Dec 23, 2014 vanaf Plesetsk Cosmodrome

Loading…

Volgende Passages (komende 24 uur)

TLE

VersSource: Space-Track

Epoch: Sep 14, 2026, 04:03 UTC

1 40355U 14085A   26257.16944265 -.00000211  00000-0  00000-0 0  9999
2 40355  10.5437  59.6069 0369643 356.3126   3.4999  0.94061000 40054

Volg DUMMY SAT 2/BREEZE-M in realtime met AllMySat

Download on the App Store